TimeEST,TemperatureF,Dew PointF,Humidity,Sea Level PressureIn,VisibilityMPH,Wind Direction,Wind SpeedMPH,Gust SpeedMPH,PrecipitationIn,Events,Conditions,WindDirDegrees,DateUTC
12:15 AM,36.9,35.8,96,29.70,3.0,Calm,Calm,-,N/A,,Overcast,0,2012-12-19 05:15:00
12:36 AM,36.9,36.0,97,29.71,3.0,Calm,Calm,-,N/A,,Overcast,0,2012-12-19 05:36:00
12:55 AM,36.7,35.8,97,29.70,3.0,Calm,Calm,-,N/A,,Overcast,0,2012-12-19 05:55:00
1:15 AM,36.7,36.0,97,29.71,2.0,Calm,Calm,-,N/A,,Overcast,0,2012-12-19 06:15:00
1:36 AM,36.5,35.8,97,29.73,2.0,Calm,Calm,-,N/A,,Overcast,0,2012-12-19 06:36:00
1:55 AM,36.7,36.1,98,29.74,1.8,Calm,Calm,-,N/A,,Overcast,0,2012-12-19 06:55:00
2:16 AM,36.7,36.1,98,29.76,1.5,Calm,Calm,-,N/A,,Overcast,0,2012-12-19 07:16:00
2:35 AM,37.2,36.7,98,29.77,1.2,Calm,Calm,-,N/A,,Overcast,0,2012-12-19 07:35:00
2:56 AM,36.9,36.3,98,29.78,1.2,Calm,Calm,-,N/A,,Overcast,0,2012-12-19 07:56:00
3:15 AM,36.7,36.3,99,29.78,1.5,North,3.5,-,N/A,,Overcast,10,2012-12-19 08:15:00
3:35 AM,36.3,35.8,98,29.80,1.5,North,3.5,-,N/A,,Overcast,350,2012-12-19 08:35:00
3:56 AM,36.5,36.1,99,29.81,1.5,Calm,Calm,-,N/A,,Overcast,0,2012-12-19 08:56:00
4:15 AM,36.7,36.5,99,29.82,1.8,Calm,Calm,-,N/A,,Overcast,0,2012-12-19 09:15:00
4:36 AM,36.5,36.1,99,29.83,1.2,Calm,Calm,-,N/A,,Overcast,0,2012-12-19 09:36:00
4:55 AM,36.5,36.1,99,29.84,1.0,NW,4.6,-,N/A,,Overcast,320,2012-12-19 09:55:00
5:16 AM,36.5,36.0,98,29.84,1.0,NW,3.5,-,N/A,,Overcast,320,2012-12-19 10:16:00
5:35 AM,36.0,35.6,99,29.85,1.2,NW,5.8,-,N/A,,Overcast,310,2012-12-19 10:35:00
5:55 AM,36.0,35.6,99,29.86,1.2,NW,4.6,-,N/A,,Overcast,310,2012-12-19 10:55:00
6:16 AM,36.0,35.6,99,29.88,2.0,WNW,3.5,-,N/A,,Overcast,300,2012-12-19 11:16:00
6:35 AM,36.0,35.6,99,29.89,2.0,WNW,4.6,-,N/A,,Overcast,300,2012-12-19 11:35:00
6:56 AM,36.3,36.0,99,29.89,2.5,Calm,Calm,-,N/A,,Overcast,0,2012-12-19 11:56:00
7:15 AM,36.1,35.8,99,29.90,2.5,Calm,Calm,-,N/A,,Overcast,0,2012-12-19 12:15:00
7:35 AM,35.8,35.6,99,29.90,2.5,Calm,Calm,-,N/A,,Overcast,0,2012-12-19 12:35:00
7:56 AM,36.0,35.6,99,29.92,2.5,Calm,Calm,-,N/A,,Overcast,0,2012-12-19 12:56:00
8:15 AM,36.0,35.6,99,29.93,2.0,Calm,Calm,-,N/A,,Overcast,0,2012-12-19 13:15:00
8:36 AM,36.1,35.6,98,29.94,2.5,Calm,Calm,-,N/A,,Overcast,0,2012-12-19 13:36:00
8:55 AM,36.1,35.4,97,29.95,4.0,Calm,Calm,-,N/A,,Overcast,0,2012-12-19 13:55:00
9:16 AM,36.7,35.6,96,29.97,4.0,West,4.6,-,N/A,,Overcast,260,2012-12-19 14:16:00
9:40 AM,36.7,35.2,95,29.99,4.0,West,6.9,-,N/A,,Overcast,260,2012-12-19 14:40:00
9:55 AM,36.5,35.2,95,30.00,3.0,West,5.8,-,N/A,,Overcast,280,2012-12-19 14:55:00
10:16 AM,37.2,35.8,95,30.01,4.0,West,4.6,-,N/A,,Overcast,270,2012-12-19 15:16:00
10:35 AM,-9999,-9999,N/A,-9999,-9999.0,North,-9999.0,-,N/A,,Unknown,0,2012-12-19 15:35:00
10:56 AM,37.4,35.1,91,30.02,-9999.0,West,4.6,-,0.03,,Overcast,260,2012-12-19 15:56:00
11:14 AM,37.8,35.2,91,30.02,-9999.0,West,4.6,-,N/A,,Overcast,270,2012-12-19 16:14:00
11:34 AM,38.1,35.1,89,30.03,-9999.0,WSW,3.5,-,N/A,,Unknown,250,2012-12-19 16:34:00
11:56 AM,38.3,34.9,87,30.03,-9999.0,Calm,Calm,-,N/A,,Unknown,0,2012-12-19 16:56:00
12:16 PM,37.9,34.7,88,30.02,5.0,Calm,Calm,-,N/A,,Clear,0,2012-12-19 17:16:00
12:35 PM,38.3,34.9,87,30.01,5.0,Calm,Calm,-,N/A,,Clear,0,2012-12-19 17:35:00
12:55 PM,39.0,35.4,87,30.01,5.0,Calm,Calm,-,N/A,,Clear,0,2012-12-19 17:55:00
1:16 PM,40.3,35.6,83,30.01,5.0,Calm,Calm,-,N/A,,Clear,0,2012-12-19 18:16:00
1:35 PM,41.5,34.9,77,30.01,7.0,Calm,Calm,-,N/A,,Scattered Clouds,0,2012-12-19 18:35:00
1:56 PM,40.5,34.9,80,30.01,7.0,Calm,Calm,-,N/A,,Scattered Clouds,0,2012-12-19 18:56:00
2:15 PM,43.0,35.8,76,30.02,7.0,Calm,Calm,-,N/A,,Scattered Clouds,0,2012-12-19 19:15:00
2:35 PM,41.0,34.5,78,30.02,10.0,Calm,Calm,-,N/A,,Mostly Cloudy,0,2012-12-19 19:35:00
2:55 PM,41.5,34.9,77,30.02,10.0,West,3.5,-,N/A,,Mostly Cloudy,280,2012-12-19 19:55:00
3:15 PM,41.2,35.1,79,30.03,7.0,Calm,Calm,-,N/A,,Overcast,0,2012-12-19 20:15:00
3:36 PM,40.6,34.5,79,30.03,10.0,Calm,Calm,-,N/A,,Overcast,0,2012-12-19 20:36:00
3:55 PM,41.0,34.7,78,30.03,10.0,Calm,Calm,-,N/A,,Overcast,0,2012-12-19 20:55:00
4:16 PM,40.8,34.0,77,30.04,10.0,Calm,Calm,-,N/A,,Overcast,0,2012-12-19 21:16:00
4:35 PM,40.6,34.3,78,30.05,10.0,Calm,Calm,-,N/A,,Overcast,0,2012-12-19 21:35:00
4:56 PM,40.3,33.8,78,30.05,10.0,Calm,Calm,-,N/A,,Overcast,0,2012-12-19 21:56:00
5:15 PM,40.1,33.8,78,30.06,10.0,Calm,Calm,-,N/A,,Overcast,0,2012-12-19 22:15:00
5:35 PM,39.9,34.0,79,30.06,10.0,Calm,Calm,-,N/A,,Overcast,0,2012-12-19 22:35:00
5:55 PM,38.7,33.4,81,30.06,10.0,Calm,Calm,-,N/A,,Overcast,0,2012-12-19 22:55:00
6:15 PM,37.6,33.6,86,30.06,10.0,Calm,Calm,-,N/A,,Mostly Cloudy,0,2012-12-19 23:15:00
6:36 PM,36.3,32.9,87,30.06,10.0,Calm,Calm,-,N/A,,Scattered Clouds,0,2012-12-19 23:36:00
6:55 PM,36.1,32.9,88,30.07,7.0,Calm,Calm,-,N/A,,Mostly Cloudy,0,2012-12-19 23:55:00
7:15 PM,36.5,33.3,88,30.07,7.0,Calm,Calm,-,N/A,,Overcast,0,2012-12-20 00:15:00
7:35 PM,36.7,33.6,89,30.07,7.0,Calm,Calm,-,N/A,,Overcast,0,2012-12-20 00:35:00
7:55 PM,36.0,33.3,90,30.07,7.0,Calm,Calm,-,N/A,,Overcast,0,2012-12-20 00:55:00
8:15 PM,35.4,32.9,91,30.07,7.0,Calm,Calm,-,N/A,,Mostly Cloudy,0,2012-12-20 01:15:00
8:35 PM,34.9,32.7,92,30.06,5.0,Calm,Calm,-,N/A,,Mostly Cloudy,0,2012-12-20 01:35:00
8:55 PM,36.5,34.3,92,30.06,7.0,ESE,3.5,-,N/A,,Mostly Cloudy,120,2012-12-20 01:55:00
9:15 PM,37.0,34.3,90,30.07,7.0,Calm,Calm,-,N/A,,Overcast,0,2012-12-20 02:15:00
9:35 PM,37.0,34.5,91,30.07,7.0,SE,3.5,-,N/A,,Overcast,130,2012-12-20 02:35:00
9:55 PM,37.4,34.0,87,30.05,7.0,Calm,Calm,-,N/A,,Overcast,0,2012-12-20 02:55:00
10:15 PM,37.4,34.0,87,30.05,7.0,Calm,Calm,-,N/A,,Overcast,0,2012-12-20 03:15:00
10:35 PM,37.0,33.8,88,30.05,7.0,Calm,Calm,-,N/A,,Overcast,0,2012-12-20 03:35:00
10:55 PM,37.0,34.0,89,30.04,7.0,Calm,Calm,-,N/A,,Overcast,0,2012-12-20 03:55:00
11:15 PM,37.0,34.2,89,30.03,7.0,East,4.6,-,N/A,,Overcast,90,2012-12-20 04:15:00
11:35 PM,37.0,34.2,89,30.02,7.0,East,5.8,-,N/A,,Overcast,100,2012-12-20 04:35:00
11:55 PM,37.0,34.2,89,30.02,7.0,ESE,4.6,-,N/A,,Overcast,110,2012-12-20 04:55:00